Buenos Aires, Argentina

11:56 AM America en Mayo 20, 2018 (GMT +0000)
Jorge Newbery Aeroparque

Tiempo Historia de SABE - Mayo, 2018

Change the Weather History Date:

Miércoles, Mayo 16, 2018

  Actual Average Record
Temperature  
Temperatura media 54 ° F -  
Temperatura máxima 59 ° F 62 ° F 75 ° F (2015)
Temperatura mínima 49 ° F 50 ° F 40 ° F (2013)
Degree Days  
Grados día de calefacción 11    
Growing Degree Days 4 (Base 50)    
Moisture  
Punto de rocío 40 ° F    
Average Humidity 57    
Maximum Humidity 76    
Minimum Humidity 34    
Precipitación  
Precipitación 0.00 pul 0.08 pul - ()
Presión al nivel del mar  
Presión al nivel del mar 30.18 pul    
Viento  
Velocidad del viento 5 mph ()    
Velocidad máxima del viento 8 mph    
Max Gust Speed -    
Visibilidad 6.1 Millas    
Eventos      
Averages and records for this station are not official NWS values.
T = Trace of Precipitation, MM = Missing Value Source: Averaged Metar Reports

Daily Weather History Graph

Daily Weather History Graph

Search for Another Location

Airport or City:

Astronomía

May. 16, 2018 Salida Puesta
Hora real 7:40 AM -03 5:58 PM -03
Crepúsculo civil 7:14 AM -03 6:25 PM -03
Crepúsculo náutico 6:43 AM -03 6:56 PM -03
Crepúsculo astronómico 6:13 AM -03 7:26 PM -03
Luna 8:40 AM -03 (5/16) 7:20 PM -03 (5/16)
Horas de luz 11h 11m
Horas de luz
10h 17m
Luna nueva, 2% of the Moon is Illuminated
May 16
Luna nueva
May 22
Cuarto creciente
May 29
Luna llena
Jun 6
Cuarto menguante
Jun 13
Nueva

Hourly Weather History & Observations

Hora (-03) Temp. Punto de rocío Humedad Presión Visibilidad Wind Dir Velocidad del viento Velocidad de ráfagas Precip Eventos Condiciones
12:00 AM 56 ° F 35 ° F 34% 30.16 pul 6 mi SSO 8.1 mph - -   Despejado
12:00 AM 55.4 ° F 35.6 ° F 47% 30.15 pul - SSO 8.1 mph - N/A   Despejado
1:00 AM 53.6 ° F 37.4 ° F 54% 30.15 pul - SSO 5.8 mph - N/A   Despejado
2:00 AM 53.6 ° F 37.4 ° F 54% 30.15 pul - SSO 6.9 mph - N/A   Despejado
3:00 AM 52 ° F 37 ° F 46% 30.18 pul 6 mi SSO 5.8 mph - -   Despejado
3:00 AM 51.8 ° F 37.4 ° F 58% 30.15 pul - Sur 5.8 mph - N/A   Despejado
4:00 AM 51.8 ° F 39.2 ° F 62% 30.15 pul - SSO 6.9 mph - N/A   Despejado
5:00 AM 50.0 ° F 41.0 ° F 71% 30.15 pul - Sur 5.8 mph - N/A   Despejado
6:00 AM 50 ° F 41 ° F 63% 30.18 pul 6 mi SSO 5.8 mph - -   Despejado
6:00 AM 50.0 ° F 41.0 ° F 71% 30.15 pul - Sur 4.6 mph - N/A   Despejado
7:00 AM 50.0 ° F 42.8 ° F 76% 30.18 pul - Sur 5.8 mph - N/A   Despejado
8:00 AM 50.0 ° F 42.8 ° F 76% 30.18 pul - SSO 4.6 mph - N/A   Despejado
9:00 AM 52 ° F 42 ° F 61% 30.22 pul 6 mi Sur 3.5 mph - -   Muy nublado
9:00 AM 51.8 ° F 44.6 ° F 76% 30.21 pul - Sur 4.6 mph - N/A   Despejado
10:00 AM 53.6 ° F 44.6 ° F 72% 30.21 pul - Sur 4.6 mph - N/A   Despejado
11:00 AM 55.4 ° F 41.0 ° F 58% 30.21 pul - SSE 8.1 mph - N/A   Despejado
12:00 PM 57 ° F 37 ° F 35% 30.23 pul 6 mi SSE 5.8 mph - -   Nubes dispersas
12:00 PM 57.2 ° F 39.2 ° F 51% 30.21 pul 6.2 mi SSE 6.9 mph - N/A   Parcialmente nublado
1:00 PM 57.2 ° F 41.0 ° F 55% 30.21 pul 6.2 mi Este 6.9 mph - N/A   Parcialmente nublado
2:00 PM 59.0 ° F 42.8 ° F 55% 30.18 pul 6.2 mi ENE 6.9 mph - N/A   Parcialmente nublado
3:00 PM 59.0 ° F 41.0 ° F 51% 30.18 pul 6.2 mi ENE 5.8 mph - N/A   Parcialmente nublado
4:00 PM 57.2 ° F 41.0 ° F 55% 30.18 pul 6.2 mi NE 6.9 mph - N/A   Parcialmente nublado
5:00 PM 57.2 ° F 41.0 ° F 55% 30.18 pul 6.2 mi NE 4.6 mph - N/A   Parcialmente nublado
6:00 PM 56 ° F 41 ° F 46% 30.17 pul 6 mi Este 1.2 mph - -   Nubes dispersas
6:00 PM 57.2 ° F 41.0 ° F 55% 30.15 pul 6.2 mi ENE 4.6 mph - N/A   Parcialmente nublado
7:00 PM 55.4 ° F 41.0 ° F 58% 30.15 pul 6.2 mi ESE 3.5 mph - N/A   Nubes dispersas
8:00 PM 53.6 ° F 39.2 ° F 58% 30.18 pul 6.2 mi SE 6.9 mph - N/A   Nubes dispersas
9:00 PM 55 ° F 40 ° F 47% 30.19 pul 6 mi SE 4.6 mph - -   Nubes dispersas
9:00 PM 55.4 ° F 41.0 ° F 58% 30.18 pul 6.2 mi SE 4.6 mph - N/A   Nubes dispersas
10:00 PM 55.4 ° F 41.0 ° F 58% 30.18 pul - SE 3.5 mph - N/A   Despejado
11:00 PM 55.4 ° F 42.8 ° F 63% 30.15 pul - Sur 2.3 mph - N/A   Despejado